Regional Weather Roundup
Issued by NWS

Home | Current Version | Previous Version | Graphics & Text | Print | Product List | Glossary On
Versions: 1 2 3 4 5 6 7 8 9 10 11 12 13 14 15 16 17 18 19 20 21 22 23 24 25 26 27 28 29 30 31 32 33 34 35 36 37 38 39 40 41 42 43 44 45 46 47 48 49 50
445
ASUS44 KJAN 310003
RWRMS

MISSISSIPPI HOURLY WEATHER ROUNDUP
NATIONAL WEATHER SERVICE JACKSON MS
700 PM CDT THU OCT 30 2014

NOTE: "FAIR: INDICATES FEW OR NO CLOUDS BELOW 12,000 FEET WITH NO
SIGNIFICANT WEATHER AND/OR OBSTRUCTIONS TO VISIBILITY.

MSZ001>002-007>008-010>013-018>021-025>028-034>036-310100-
NORTHWEST MISSISSIPPI

CITY           SKY/WX    TMP DP  RH WIND       PRES   REMARKS
CLARKSDALE     MOCLDY    64  52  63 CALM      30.04F
CLEVELAND      FAIR      65  49  55 CALM      30.03F
GREENWOOD      CLEAR     55  50  83 CALM      30.06R
6HR MIN TEMP:  55; 6HR MAX TEMP:  72;

GREENVILLE     PTCLDY    59  51  75 CALM      30.05S
6HR MIN TEMP:  59; 6HR MAX TEMP:  74;

GRENADA        FAIR      54  48  82 CALM      30.06S
OLIVE BRANCH   MOCLDY    61  43  51 S5        30.05S
OXFORD         FAIR      52  46  82 CALM      30.07S
TUNICA         CLOUDY    61  52  72 CALM      30.05R
$$

MSZ003>006-009-014>017-022>024-029>033-037>039-310100-
NORTHEAST MISSISSIPPI

CITY           SKY/WX    TMP DP  RH WIND       PRES   REMARKS
COLUMBUS AFB   NOT AVBL
CORINTH        FAIR      52  45  76 CALM      30.04S
GOLDN TRIANGLE PTCLDY    57  39  51 N5        30.04S
STARKVILLE     FAIR      52  46  82 CALM      30.05R
TUPELO         CLEAR     55  45  68 CALM      30.05R
6HR MIN TEMP:  55; 6HR MAX TEMP:  68;

$$

MSZ040-058-310100-
CENTRAL MISSISSIPPI

CITY           SKY/WX    TMP DP  RH WIND       PRES   REMARKS
JACKSON INTL   PTCLDY    58  45  62 CALM      30.06R
6HR MIN TEMP:  56; 6HR MAX TEMP:  73;

JACKSON HAWKNS CLEAR     63  43  48 N3        30.06R
6HR MIN TEMP:  62; 6HR MAX TEMP:  73;

MERIDIAN KEY   CLEAR     55  43  63 CALM      30.04S
6HR MIN TEMP:  55; 6HR MAX TEMP:  72;

MERIDIAN NAS   PTCLDY    57  39  51 CALM      30.04S
6HR MIN TEMP:  57; 6HR MAX TEMP:  71;

RAYMOND        FAIR      57  52  82 CALM      30.06R
VICKSBURG      CLEAR     53  48  83 CALM      30.06S
6HR MIN TEMP:  53; 6HR MAX TEMP:  74;

$$

MSZ059>079-310100-
SOUTH MISSISSIPPI

CITY           SKY/WX    TMP DP  RH WIND       PRES   REMARKS
BROOKHAVEN     FAIR      57  45  62 CALM      30.07R
COLUMBIA         N/A     55  46  71 MISG      30.03R
HATTIESBURG    CLEAR     59  45  59 CALM      30.04S
6HR MIN TEMP:  59; 6HR MAX TEMP:  74;

MCCOMB         CLEAR     61  44  53 N3        30.05R
6HR MIN TEMP:  61; 6HR MAX TEMP:  74;

NATCHEZ        CLEAR     57  48  72 CALM      30.07S
6HR MIN TEMP:  57; 6HR MAX TEMP:  72;

PINE BELT      CLEAR     54  45  71 NW5       30.05S
6HR MIN TEMP:  54; 6HR MAX TEMP:  73;

$$

MSZ080>082-310100-
COASTAL MISSISSIPPI

CITY           SKY/WX    TMP DP  RH WIND       PRES   REMARKS
BAY ST LOUIS   CLEAR     57  45  62 CALM      30.04R
BILOXI         CLEAR     67  43  42 N2        30.02R
6HR MIN TEMP:  67; 6HR MAX TEMP:  74;

PASCAGOULA     CLEAR     52  45  77 CALM      30.02R
6HR MIN TEMP:  52; 6HR MAX TEMP:  74;

GULFPORT       CLEAR     60  45  57 NW5       30.02R
6HR MIN TEMP:  60; 6HR MAX TEMP:  75;

$$



USA.gov is the U.S. government's official web portal to all federal, state and local government web resources and services.